Regional Weather Roundup
Issued by NWS Sioux Falls, SD

Home | Current Version | Previous Version | Text Only | Print | Product List | Glossary On
Versions: 1 2 3 4 5 6 7 8 9 10 11 12 13 14 15 16 17 18 19 20 21 22 23 24 25 26 27 28 29 30 31 32 33 34 35 36 37 38 39 40 41 42 43 44 45 46 47 48 49 50
701
ASUS43 KFSD 280010
RWRFSD

WEATHER ROUNDUP FOR SE SOUTH DAKOTA/SW MINNESOTA/NW IOWA
NATIONAL WEATHER SERVICE SIOUX FALLS SD
700 PM CDT THU JUL 27 2017

NOTE: "FAIR" INDICATES FEW OR NO CLOUDS BELOW 12,000 FEET WITH NO
SIGNIFICANT WEATHER AND OR OBSTRUCTIONS TO VISIBILITY.


SDZ038>040-050-052>070-280100-
SOUTHEAST SOUTH DAKOTA

CITY           SKY/WX    TMP DP  RH WIND       PRES   REMARKS
BROOKINGS      SUNNY     79  61  53 NE8       30.07F
CHAMBERLAIN    MOSUNNY   85  57  39 SE7       30.05S
6HR MIN TEMP:  84; 6HR MAX TEMP:  87;

HURON          SUNNY     80  62  54 SE8       30.04F
6HR MIN TEMP:  79; 6HR MAX TEMP:  84;

MADISON        FAIR      75  64  69 E6        30.08S
MITCHELL       MOSUNNY   81  64  56 CALM      30.04F
6HR MIN TEMP:  80; 6HR MAX TEMP:  85;

SIOUX FALLS    MOSUNNY   81  63  54 NE12      30.05F
6HR MIN TEMP:  79; 6HR MAX TEMP:  84;

WINNER         FAIR      85  56  37 SE7       30.06S
YANKTON        SUNNY     81  62  52 NE8       30.04F
$$

MNZ071-072-080-081-089-090-097-098-280100-
SOUTHWEST MINNESOTA

CITY           SKY/WX    TMP DP  RH WIND       PRES   REMARKS
FAIRMONT       SUNNY     79  63  57 N7        30.04S
JACKSON        SUNNY     77  61  57 CALM      30.07S
LUVERNE        SUNNY     79  55  44 NE8       30.07S
MARSHALL       MOSUNNY   80  59  48 E7        30.06S
6HR MIN TEMP:  77; 6HR MAX TEMP:  81;

MONTEVIDEO     MOSUNNY   82  63  51 NE6       30.06S
PIPESTONE      SUNNY     81  61  50 NE5       30.08S
REDWOOD FALLS  SUNNY     82  59  45 VRB5      30.04S
TRACY          MOSUNNY   80  63  57 NE6       30.07S
WINDOM         SUNNY     79  61  53 N5        30.06F
WORTHINGTON    SUNNY     78  61  55 NE8       30.08S
$$

IAZ001>003-012>014-020>022-031-032-NEZ013-014-SDZ071-280100-
NORTHWEST IOWA

CITY           SKY/WX    TMP DP  RH WIND       PRES   REMARKS
CHEROKEE       MOSUNNY   81  60  48 N10       30.03S
DENISON        SUNNY     79  64  61 NE5       30.03S
ESTHERVILLE    SUNNY     79  64  60 N10       30.04S
ORANGE CITY    MOSUNNY   81  63  54 E8        30.05S
SHELDON        PTSUNNY   81  63  54 NE8       30.04S
SIOUX CITY     SUNNY     84  61  45 NE9       30.02S
6HR MIN TEMP:  83; 6HR MAX TEMP:  87;

SPENCER        SUNNY     79  60  52 N9        30.04S
6HR MIN TEMP:  79; 6HR MAX TEMP:  86;

STORM LAKE     SUNNY     79  63  57 NE9       30.04S
$$

ABBREVIATIONS USED IN REMARKS
   TC - TEMPERATURE IN CELSIUS
  WCI - WIND CHILL INDEX
   HX - HEAT INDEX
  VSB - VISIBILITY





USA.gov is the U.S. government's official web portal to all federal, state and local government web resources and services.